HORIZONS-3E

Last updated on Wed Oct 29 2025 00:02:49 GMT+0000 (Coordinated Universal Time)

1 43633U 18074B 25300.31780831 -.00000018 00000+0 00000+0 0 9998 2 43633 0.0036 175.7246 0000875 118.7400 24.9222 1.00272796 26006
UTC large
Height (km)
Speed (km/s)
/
Latitude / Longitude
Inclination (degrees)
Orbital Period (minutes)
Azimuth
Elevation
Range (km)
Doppler Factor

Next 0 passes for location: London (51.5072 / 0.1276)

Sorry there are no passes over London.